Weather observations for the past three days for
Manassas, Manassas Regional Airport/Harry P. Davis Field
Imperial (Metric)
Date Time (edt) Wind (mph) Vis. (mi.) Weather Sky Cond. Temperature (ºF) Relative Humidity Wind Chill (°F) Heat Index (°F) Pressure Precipitation (in)
Air Dwpt 6 hour altimeter (in) sea level (mb) 1 hr 3 hr 6 hr
Max. Min.
18 11:56 SE 5 10.00 Fair CLR 84.9 71.1 63% 90 30.25 1024.8
18 10:56 SE 6 10.00 Fair CLR 82 70 67% 86 30.25 1024.7
18 09:56 Calm 10.00 Fair CLR 79 68 69% 81 30.25 1024.8
18 08:56 S 9 10.00 Fair CLR 77 66 69% 79 30.25 1024.8
18 07:56 S 8 10.00 Fair CLR 73.9 64.9 73.9 68 74% 30.24 1024.5
18 06:56 SE 3 10.00 Fair CLR 70 64.9 84% 30.23 1024.1
18 05:56 S 3 10.00 Fair CLR 69.1 64.9 87% 30.23 1023.8
18 04:56 SE 7 10.00 Fair CLR 69.1 66 90% 30.2 1023.0
18 03:56 SE 7 10.00 Fair CLR 69.1 66.9 93% 30.19 1022.6
18 02:56 S 5 10.00 Fair CLR 70 66.9 90% 30.18 1022.4
18 01:56 S 3 10.00 Fair CLR 73 68 84 72 84% 30.18 1022.4
18 00:56 SE 5 10.00 Fair CLR 73 69.1 87% 30.18 1022.3
17 23:56 S 7 10.00 Fair CLR 75.9 70 82% 77 30.17 1022.1
17 22:56 S 7 10.00 Fair CLR 75.9 71.1 85% 76 30.15 1021.4
17 21:56 S 7 10.00 Fair CLR 79 71.1 77% 82 30.15 1021.2
17 20:56 S 7 10.00 Fair CLR 80.1 72 76% 84 30.13 1020.7
17 19:56 SE 7 10.00 Fair CLR 84 72 91 84 67% 90 30.13 1020.6
17 18:56 SE 9 10.00 A Few Clouds FEW055 87.1 72 61% 94 30.11 1019.9
17 17:56 S 9 10.00 Fair CLR 89.1 72 57% 96 30.09 1019.4
17 16:56 S 6 10.00 Partly Cloudy FEW047 SCT055 91 72 54% 99 30.1 1019.6
17 15:56 S 9 10.00 Fair CLR 91 73 56% 100 30.12 1020.4
17 14:56 SW 8 10.00 Fair CLR 89.1 72 57% 96 30.14 1021.0
17 13:56 S 7 10.00 Fair CLR 87.1 71.1 87.1 71.1 59% 93 30.14 1021.1
17 11:56 SW 8 10.00 Mostly Cloudy BKN070 82.9 68 61% 86 30.18 1022.2
17 10:56 S 8 10.00 A Few Clouds FEW070 80.1 66.9 64% 82 30.18 1022.4
17 09:56 Vrbl 7 10.00 A Few Clouds FEW075 78.1 64.9 64% 80 30.19 1022.9
17 08:56 S 10 10.00 A Few Clouds FEW090 75 64 69% 77 30.2 1023.0
17 07:56 S 7 10.00 Fair CLR 71.1 63 71.1 61 76% 30.2 1022.9
17 06:56 S 7 10.00 Fair CLR 66 61 84% 30.19 1022.7
17 05:56 S 7 10.00 Fair CLR 62.1 59 90% 30.19 1022.7
17 04:56 S 5 10.00 Fair CLR 64 59 84% 30.19 1022.6
17 03:56 S 3 10.00 Fair CLR 64.9 59 81% 30.19 1022.6
17 02:56 Calm 10.00 Fair CLR 66 59 78% 30.18 1022.4
17 01:56 SE 5 10.00 Fair CLR 66.9 59 79 66.9 76% 30.18 1022.3
17 00:56 S 7 10.00 A Few Clouds FEW060 70 60.1 71% 30.17 1022.2
16 23:56 S 7 10.00 Fair CLR 72 62.1 71% 30.18 1022.3
16 22:56 S 8 10.00 A Few Clouds FEW060 73 63 71% 30.16 1021.6
16 21:56 SE 6 10.00 Mostly Cloudy BKN060 75 61 62% 77 30.15 1021.4
16 19:56 SE 8 10.00 Overcast OVC075 79 64 87.1 79 60% 81 30.14 1021.0
16 18:56 S 9 10.00 Overcast OVC070 81 64 57% 83 30.14 1021.1
16 17:56 SE 10 10.00 Overcast OVC065 82 63 53% 83 30.14 1020.9
16 16:56 S 9 10.00 Overcast OVC060 84 63 49% 85 30.15 1021.6
16 15:56 SE 10 10.00 Mostly Cloudy BKN060 84 61 46% 84 30.16 1021.8
16 14:56 S 10 10.00 Partly Cloudy SCT060 86 62.1 45% 87 30.18 1022.3
16 13:56 SE 9 G 17 10.00 A Few Clouds FEW060 84 60.1 84.9 64.9 44% 84 30.19 1022.9
16 12:56 Vrbl 6 10.00 Fair CLR 84 60.1 44% 84 30.2 1023.2
16 11:56 S 8 10.00 Fair CLR 81 59 47% 81 30.21 1023.4
16 10:56 S 6 10.00 Fair CLR 80.1 61 52% 81 30.22 1023.7
16 08:56 Calm 10.00 Fair CLR 71.1 62.1 73% 30.22 1023.8
16 07:56 Calm 10.00 Fair CLR 64.9 60.1 64.9 55 84% 30.22 1023.6
16 06:56 Calm 10.00 Fair CLR 59 57 93% 30.2 1023.1
16 05:56 Calm 10.00 Fair CLR 55.9 55.9 100% 30.18 1022.6
16 04:56 Calm 10.00 Fair CLR 55 55 100% 30.16 1021.8
16 03:56 Calm 10.00 Fair CLR 57.9 55.9 93% 30.15 1021.4
16 02:56 Calm 10.00 Fair CLR 57 57 100% 30.15 1021.4
16 01:56 Calm 10.00 Fair CLR 57.9 55.9 79 57.9 93% 30.14 1021.2
16 00:56 Calm 10.00 Fair CLR 63 57 81% 30.14 1020.9
15 23:56 Calm 10.00 Fair CLR 59 57 93% 30.13 1020.8
15 22:56 Calm 10.00 Fair CLR 63 57 81% 30.12 1020.3
15 21:56 Calm 10.00 Fair CLR 64 57 78% 30.11 1020.0
15 20:56 N 7 10.00 Fair CLR 73 54 51% 30.09 1019.4
15 19:56 N 7 10.00 Fair CLR 79 54 84 79 42% 79 30.08 1018.8
15 18:56 NW 10 10.00 Fair CLR 81 54 39% 81 30.06 1018.4
15 17:56 N 8 10.00 Fair CLR 82.9 54 37% 82 30.06 1018.3
15 16:56 N 10 G 17 10.00 Fair CLR 82.9 55 38% 82 30.06 1018.4
15 15:56 N 14 10.00 Partly Cloudy SCT065 84 55.9 38% 83 30.06 1018.4
15 14:56 N 10 10.00 Fair CLR 82.9 55 38% 82 30.05 1018.1
15 13:56 N 12 G 17 10.00 Mostly Cloudy BKN060 81 55.9 82.9 71.1 42% 81 30.06 1018.5
15 12:56 N 10 10.00 Mostly Cloudy BKN060 79 55.9 45% 80 30.08 1018.9
Date Time (edt) Wind (mph) Vis. (mi.) Weather Sky Cond. Air Dwpt Max. Min. Relative Humidity Wind Chill (°F) Heat Index (°F) altimeter (in) sea level (mb) 1 hr 3 hr 6 hr
6 hour
Temperature (ºF) Pressure Precipitation (in)